Regional Weather Roundup
Issued by NWS Raleigh/Durham, NC

Home | Current Version | Previous Version | Text Only | Print | Product List | Glossary On
Versions: 1 2 3 4 5 6 7 8 9 10 11 12 13 14 15 16 17 18 19 20 21 22 23 24 25 26 27 28 29 30 31 32 33 34 35 36 37 38 39 40 41 42 43 44 45 46 47 48 49 50
000
ASUS42 KRAH 252310
RWRRAH
NORTH CAROLINA WEATHER ROUNDUP
NATIONAL WEATHER SERVICE RALEIGH NC
600 PM EST SAT FEB 25 2017

NOTE: "FAIR" INDICATES FEW OR NO CLOUDS BELOW 12,000 FEET WITH NO
SIGNIFICANT WEATHER AND/OR OBSTRUCTIONS TO VISIBILITY.

NCZ001-053-055-056-065-067-260000-
WESTERN NORTH CAROLINA

CITY           SKY/WX    TMP DP  RH WIND       PRES   REMARKS
ASHEVILLE      CLEAR     52  18  26 N18G24    29.81R
JEFFERSON      PTCLDY    44  25  47 W25G35    29.76R
MORGANTON      CLEAR     58  15  18 NW18G26   29.82R
HICKORY        CLEAR     58  17  20 NW16G28   29.75R
RUTHERFORDTON  CLEAR     60  19  20 NW13G22   29.77R
MOUNT AIRY     CLEAR     58  24  27 W14G23    29.73R
BOONE          CLEAR     44  22  41 NW17G36   29.78R
$$

NCZ021-022-025-041-071-084-088-260000-
CENTRAL NORTH CAROLINA

CITY           SKY/WX    TMP DP  RH WIND       PRES   REMARKS
CHARLOTTE      PTCLDY    68  17  14 W16G25    29.70R
GREENSBORO     PTCLDY    63  18  17 W23G32    29.66R
WINSTON-SALEM  CLEAR     62  11  13 NW18G29   29.70R
RALEIGH-DURHAM PTCLDY    74  49  41 SW20G25   29.58R
FORT BRAGG     PTCLDY    76  50  40 SW12G25   29.60R
FAYETTEVILLE   PTCLDY    76  51  41 SW16G29   29.61R
BURLINGTON     CLEAR     67  33  28 W15G26    29.64R
LAURINBURG     CLEAR     75  42  30 SW17G26   29.64R
$$

NCZ011-015-027-028-043-044-047-080-103-260000-
NORTHEASTERN NORTH CAROLINA

CITY           SKY/WX    TMP DP  RH WIND       PRES   REMARKS
ROCKY MT-WILSO CLEAR     74  54  49 SW15G25   29.57R
GREENVILLE     PTCLDY    77  52  41 SW10G16   29.61R
WASHINGTON     CLEAR     73  61  66 S9        29.58R
ELIZABETH CITY CLEAR     71  57  61 S14G23    29.55S
MANTEO         CLEAR     65  61  85 SW21G26   29.59S
CAPE HATTERAS  CLEAR     71  63  75 SW17G26   29.64F HAZE
$$

NCZ078-087-090-091-093-098-101-260000-
SOUTHEASTERN NORTH CAROLINA

CITY           SKY/WX    TMP DP  RH WIND       PRES   REMARKS
LUMBERTON      CLEAR     75  53  46 SW16      29.64R
GOLDSBORO      CLEAR     75  53  45 SW14G23   29.58R
KINSTON        PTCLDY    75  52  43 SW13      29.60R
KENANSVILLE    PTCLDY    75  54  46 SW9G17    29.62R
NEW BERN       CLEAR     70  62  76 S13       29.62S
CHERRY POINT   NOT AVBL
BEAUFORT       CLEAR     69  63  81 SW23G30   29.65S
JACKSONVILLE   CLEAR     70  60  70 S10G20    29.63R
WILMINGTON     CLEAR     68  60  75 SW14G22   29.67R
$$




USA.gov is the U.S. government's official web portal to all federal, state and local government web resources and services.